Starlink 5024

operational
NORAD ID: 53901 Int'l Des: 2022-119 Owner: SPXS Country: US Constellation: starlink
LEOCIRCULAR

About Starlink 5024

Description loading...

Live Position

Loading 3D Globe...

Upcoming Passes

Altitude History

Altitude vs Time

uPlot chart will show altitude changes over time

Two-Line Element Set

1 53901U 22119R 25318.84237909 .00076803 00000-0 74407-3 0 9993
2 53901 53.2150 95.2464 0003513 311.3635 48.7080 15.65726448174692
Epoch: Nov 14, 2025 • Age: 8 hours

Current Status

Altitude 370.6 km
Velocity 7.69 km/s
Sub-Earth Point -2.47°S, 20.6°W
Launch Date Sep 24, 2022
Age 3.1 years
Type internet

Technical Details

Classification Payload
Mass 305.00 kg
Dry Mass 290.00 kg
Total Mass 305.00 kg
Length 0.20 m
Diameter 2.80 m
Span 9.00 m
Shape Box + pan
Manufacturer SPXS
Bus Type Starlink
Phase Status In Orbit
Owner/State SPXS/US

Large Constellations

Loading constellations...